TimeMST,TemperatureF,Dew PointF,Humidity,Sea Level PressureIn,VisibilityMPH,Wind Direction,Wind SpeedMPH,Gust SpeedMPH,PrecipitationIn,Events,Conditions,WindDirDegrees,DateUTC
12:15 AM,24.8,24.8,100,29.73,1.0,South,16.1,-,N/A,,Overcast,170,2012-12-08 07:15:00
12:55 AM,24.8,24.8,100,29.71,1.0,South,17.3,21.9,N/A,,Overcast,180,2012-12-08 07:55:00
1:15 AM,24.8,24.8,100,29.70,1.8,South,19.6,-,N/A,,Overcast,180,2012-12-08 08:15:00
1:35 AM,24.8,24.8,100,29.70,3.0,South,17.3,23.0,0.01,,Overcast,190,2012-12-08 08:35:00
1:55 AM,24.8,23.0,93,29.70,3.0,SSW,15.0,28.8,0.01,,Mostly Cloudy,210,2012-12-08 08:55:00
2:15 AM,24.8,21.2,86,29.70,5.0,SSW,18.4,27.6,N/A,,Overcast,200,2012-12-08 09:15:00
2:35 AM,26.6,19.4,74,29.69,8.0,SW,25.3,32.2,0.01,,Overcast,220,2012-12-08 09:35:00
3:35 AM,26.6,19.4,74,29.67,5.0,SSW,19.6,31.1,N/A,,Overcast,210,2012-12-08 10:35:00
3:55 AM,26.6,19.4,74,29.66,8.0,SSW,17.3,33.4,N/A,,Overcast,200,2012-12-08 10:55:00
4:15 AM,26.6,19.4,74,29.66,9.0,SW,20.7,28.8,N/A,,Overcast,220,2012-12-08 11:15:00
4:35 AM,26.6,19.4,74,29.66,5.0,SW,18.4,29.9,N/A,,Overcast,220,2012-12-08 11:35:00
4:55 AM,26.6,19.4,74,29.66,6.0,SW,19.6,28.8,N/A,,Overcast,220,2012-12-08 11:55:00
5:15 AM,24.8,19.4,80,29.65,3.0,SW,26.5,38.0,N/A,,Overcast,230,2012-12-08 12:15:00
5:35 AM,24.8,17.6,74,29.64,5.0,SW,27.6,38.0,N/A,,Overcast,220,2012-12-08 12:35:00
5:55 AM,24.8,19.4,80,29.64,1.5,SW,21.9,34.5,N/A,,Overcast,230,2012-12-08 12:55:00
6:15 AM,24.8,21.2,86,29.65,1.0,West,12.7,26.5,N/A,,Overcast,270,2012-12-08 13:15:00
6:35 AM,21.2,19.4,93,29.67,0.8,West,12.7,23.0,N/A,,Overcast,280,2012-12-08 13:35:00
6:53 AM,19.4,17.6,93,29.70,1.8,West,5.8,-,N/A,Snow,Light Snow,280,2012-12-08 13:53:00
7:22 AM,17.6,17.6,100,29.74,0.5,WNW,11.5,28.8,N/A,Fog-Snow,Snow,300,2012-12-08 14:22:00
7:55 AM,17.6,10.4,73,29.74,3.0,West,17.3,28.8,N/A,Snow,Light Snow,280,2012-12-08 14:55:00
8:15 AM,19.4,5.0,54,29.72,6.0,West,28.8,40.3,N/A,,Mostly Cloudy,270,2012-12-08 15:15:00
8:51 AM,17.6,3.2,53,29.74,7.0,West,28.8,40.3,N/A,,Mostly Cloudy,280,2012-12-08 15:51:00
9:58 AM,17.6,-2.2,42,29.79,10.0,West,17.3,38.0,N/A,,Scattered Clouds,260,2012-12-08 16:58:00
11:13 AM,17.6,-0.4,45,29.83,10.0,WNW,12.7,32.2,N/A,,Scattered Clouds,290,2012-12-08 18:13:00
11:51 AM,19.4,1.4,46,29.82,10.0,West,11.5,23.0,N/A,,Scattered Clouds,260,2012-12-08 18:51:00
12:52 PM,19.4,6.8,58,29.84,10.0,WSW,9.2,-,N/A,,Mostly Cloudy,240,2012-12-08 19:52:00
1:53 PM,19.4,6.8,58,29.85,10.0,South,6.9,-,N/A,Snow,Snow,180,2012-12-08 20:53:00
2:55 PM,19.4,6.8,58,29.87,10.0,WSW,8.1,-,N/A,Snow,Snow,240,2012-12-08 21:55:00
3:53 PM,19.4,6.8,58,29.89,10.0,SSW,8.1,-,N/A,Snow,Snow,200,2012-12-08 22:53:00
4:51 PM,17.6,6.8,63,29.91,10.0,Calm,Calm,-,N/A,Snow,Snow,0,2012-12-08 23:51:00
5:54 PM,12.2,5.0,73,29.92,10.0,ESE,6.9,-,N/A,,Partly Cloudy,110,2012-12-09 00:54:00
6:52 PM,8.6,3.2,79,29.93,10.0,SSW,5.8,-,N/A,,Clear,210,2012-12-09 01:52:00
7:52 PM,8.6,1.4,73,29.94,10.0,Calm,Calm,-,N/A,,Scattered Clouds,0,2012-12-09 02:52:00
8:51 PM,3.2,-0.4,85,29.96,10.0,North,8.1,-,N/A,,Clear,360,2012-12-09 03:51:00
8:55 PM,3.2,-0.4,85,29.96,10.0,North,5.8,-,N/A,,Clear,10,2012-12-09 03:55:00
9:15 PM,1.4,-2.2,85,29.97,10.0,NNE,4.6,-,N/A,,Clear,30,2012-12-09 04:15:00
9:35 PM,-0.4,-2.2,92,29.97,10.0,NNW,4.6,-,N/A,,Clear,330,2012-12-09 04:35:00
9:55 PM,-0.4,-2.2,92,29.98,10.0,North,4.6,-,N/A,,Clear,10,2012-12-09 04:55:00
10:15 PM,-0.4,-2.2,92,29.99,10.0,NNW,5.8,-,N/A,,Clear,330,2012-12-09 05:15:00
10:35 PM,-0.4,-4.0,85,29.99,10.0,NNE,3.5,-,N/A,,Clear,20,2012-12-09 05:35:00
10:55 PM,-2.2,-4.0,92,29.99,10.0,Calm,Calm,-,N/A,,Clear,0,2012-12-09 05:55:00
11:15 PM,-0.4,-0.4,100,30.00,10.0,NNW,5.8,-,N/A,,Clear,340,2012-12-09 06:15:00
11:35 PM,-4.0,-5.8,92,30.01,10.0,North,5.8,-,N/A,,Clear,350,2012-12-09 06:35:00
11:55 PM,-2.2,-5.8,85,30.01,10.0,NNE,4.6,-,N/A,,Clear,30,2012-12-09 06:55:00